Regional Weather Roundup
Issued by NWS

Home | Current Version | Previous Version | Graphics & Text | Print | Product List | Glossary On
Versions: 1 2 3 4 5 6 7 8 9 10 11 12 13 14 15 16 17 18 19 20 21 22 23 24 25 26 27 28 29 30 31 32 33 34 35 36 37 38 39 40 41 42 43 44 45 46 47 48 49 50
000
ASUS45 KSLC 202210
RWRUT

UTAH REGIONAL WEATHER ROUNDUP
NATIONAL WEATHER SERVICE SALT LAKE CITY UT
300 PM MST MON NOV 20 2017

UTZ001>011-023>025-202300-

NORTHERN UTAH

CITY           SKY/WX    TMP DP  RH WIND       PRES   REMARKS
BRIGHAM CITY   CLOUDY    41  30  64 CALM      30.09R
DUGWAY         PTSUNNY   45  29  53 S5        30.09F
HILL AFB       PTSUNNY   45  28  51 E5        30.06F
LOGAN          CLOUDY    44  30  57 VRB5      30.03F
OGDEN          CLOUDY    44  33  65 S6        30.05F
SALT LAKE CITY CLOUDY    45  34  65 S8        30.09F
TOOELE VALLEY  CLOUDY    41  34  75 CALM      30.10F
WENDOVER       MOSUNNY   42  25  50 E6        30.10F
HEBER CITY     CLOUDY    50  21  32 W6G16     30.07F
WEST JORDAN    CLOUDY    41  34  74 CALM      30.11F

$$

UTZ011>015-024>027-202300-

CENTRAL/NORTHEAST UTAH

CITY           SKY/WX    TMP DP  RH WIND       PRES   REMARKS
PROVO AIRPORT  CLOUDY    46  32  58 N6        30.09F
MOAB/CANYONLAN CLOUDY    45  14  28 CALM      30.14F
DELTA          CLOUDY    50  10  20 N3        30.11R
PRICE          MOSUNNY   43   8  23 S6        30.13S
RICHFIELD      PTSUNNY   52  21  30 N5        30.10R
ROOSEVELT      CLOUDY    43  12  28 E3        30.11S
VERNAL         CLOUDY    42  11  28 CALM      30.09S

$$

UTZ013>016-019>022-027-202300-

SOUTHERN UTAH

CITY           SKY/WX    TMP DP  RH WIND       PRES   REMARKS
BRYCE CANYON   SUNNY     52   6  15 SE9       30.15F
CEDAR CITY     MOSUNNY   60   5  11 SW12      30.08F
MILFORD        MOSUNNY   62   2   9 S16       30.07R
ST GEORGE      CLOUDY    59   9  13 SW3       30.07F
HANKSVILLE     MOSUNNY   46  10  23 CALM      30.16S
KANAB          SUNNY     64   1   8 SW10      30.13F
BLANDING         N/A     44   8  22 CALM      30.21F

$$

REGIONAL REPORTS     COLORADO/ARIZONA

CITY           SKY/WX    TMP DP  RH WIND       PRES   REMARKS
CRAIG, CO      CLOUDY    41  25  53 CALM      30.07F
GRAND JUNCTION CLOUDY    44  18  35 W3        30.14S
RIFLE, CO      CLOUDY    39  17  41 CALM      30.15S
MONTROSE, CO   CLOUDY    40  18  41 CALM      30.16F
CORTEZ, CO     CLOUDY    49   9  19 W3        30.15S
COLORADO CITY    N/A     64  10  12 NW7       30.12F
PAGE, AZ       MOSUNNY   52  13  21 VRB3      30.10F
GRAND CANYON   MOSUNNY   59   1   9 VRB5      30.17F
KINGMAN, AZ    PTSUNNY   68  21  16 SW15      30.05F
FLAGSTAFF, AZ  PTSUNNY   58   6  12 W8        30.18S

$$

REGIONAL REPORTS    NEVADA/IDAHO/WYOMING

CITY           SKY/WX    TMP DP  RH WIND       PRES   REMARKS
LAS VEGAS, NV  PTSUNNY   64  10  12 CALM      30.07R
ELY, NY        CLOUDY    56  19  23 E7        30.12S
ELKO, NV       CLOUDY    49  35  58 CALM      30.09S
POCATELLO, ID  CLOUDY    45  33  63 S13       30.04R
BURLEY, ID     LGT RAIN  46  38  73 SW13      30.02R
FORT BRIDGER,  CLOUDY    39  26  58 W17       30.06F WCI  30
EVANSTON, WY   CLOUDY    38  25  59 SW15G24   30.07F WCI  29
ROCK SPRINGS,  CLOUDY    37  19  48 W23       30.04R WCI  26
KEMMERER, WY   CLOUDY    36  25  64 SW8       30.02F WCI  29

$$



USA.gov is the U.S. government's official web portal to all federal, state and local government web resources and services.